TimePST,TemperatureF,Dew PointF,Humidity,Sea Level PressureIn,VisibilityMPH,Wind Direction,Wind SpeedMPH,Gust SpeedMPH,PrecipitationIn,Events,Conditions,WindDirDegrees,DateUTC
12:58 AM,39.0,38.3,97,30.06,10.0,South,5.8,-,N/A,,Overcast,190,2013-01-27 08:58:00
1:48 AM,39.2,37.4,93,30.03,10.0,South,5.8,-,N/A,,Overcast,190,2013-01-27 09:48:00
1:58 AM,38.7,37.8,97,30.05,10.0,South,5.8,-,N/A,,Overcast,190,2013-01-27 09:58:00
2:28 AM,37.4,37.4,100,30.04,10.0,South,5.8,-,N/A,,Mostly Cloudy,190,2013-01-27 10:28:00
2:58 AM,39.2,38.5,97,30.06,10.0,South,5.8,-,N/A,,Overcast,190,2013-01-27 10:58:00
3:13 AM,39.2,39.2,100,30.04,10.0,South,6.9,-,N/A,,Overcast,190,2013-01-27 11:13:00
3:28 AM,39.2,39.2,100,30.04,10.0,South,6.9,-,N/A,,Mostly Cloudy,190,2013-01-27 11:28:00
3:38 AM,39.2,39.2,100,30.03,10.0,South,5.8,-,N/A,,Overcast,190,2013-01-27 11:38:00
3:43 AM,39.2,39.2,100,30.03,10.0,South,6.9,-,N/A,,Mostly Cloudy,190,2013-01-27 11:43:00
3:58 AM,39.2,38.7,98,30.05,10.0,South,5.8,-,N/A,,Mostly Cloudy,190,2013-01-27 11:58:00
4:28 AM,39.2,39.2,100,30.03,10.0,South,6.9,-,N/A,,Overcast,190,2013-01-27 12:28:00
4:58 AM,39.7,38.5,95,30.06,10.0,South,5.8,-,N/A,,Overcast,190,2013-01-27 12:58:00
5:38 AM,39.2,37.4,93,30.04,10.0,South,6.9,-,N/A,,Mostly Cloudy,190,2013-01-27 13:38:00
5:43 AM,39.2,37.4,93,30.03,10.0,South,8.1,-,N/A,,Mostly Cloudy,190,2013-01-27 13:43:00
5:58 AM,39.4,37.8,94,30.06,10.0,South,5.8,-,N/A,,Overcast,190,2013-01-27 13:58:00
6:38 AM,37.4,37.4,100,30.04,10.0,South,6.9,-,N/A,,Scattered Clouds,190,2013-01-27 14:38:00
6:58 AM,37.2,36.5,97,30.06,10.0,South,6.9,-,N/A,,Partly Cloudy,190,2013-01-27 14:58:00
7:58 AM,36.0,35.8,99,30.07,10.0,South,3.5,-,N/A,,Clear,190,2013-01-27 15:58:00
8:58 AM,38.7,38.1,98,30.08,10.0,South,6.9,-,N/A,,Clear,190,2013-01-27 16:58:00
9:58 AM,40.6,37.9,90,30.09,10.0,South,9.2,-,N/A,,Partly Cloudy,190,2013-01-27 17:58:00
10:18 AM,41.0,37.4,87,30.07,10.0,South,8.1,-,N/A,,Mostly Cloudy,190,2013-01-27 18:18:00
10:19 AM,41.0,37.4,87,30.07,10.0,South,8.1,-,N/A,,Mostly Cloudy,190,2013-01-27 18:19:00
10:24 AM,41.0,37.4,87,30.07,10.0,South,8.1,-,N/A,,Mostly Cloudy,190,2013-01-27 18:24:00
10:31 AM,41.0,37.4,87,30.07,10.0,South,10.4,-,N/A,,Mostly Cloudy,190,2013-01-27 18:31:00
10:48 AM,41.0,37.4,87,30.07,10.0,South,10.4,-,N/A,Rain,Light Rain,190,2013-01-27 18:48:00
10:58 AM,40.5,37.8,90,30.09,10.0,South,9.2,-,0.01,Rain,Light Rain,190,2013-01-27 18:58:00
11:07 AM,41.0,37.4,87,30.07,10.0,South,10.4,-,N/A,,Overcast,190,2013-01-27 19:07:00
11:23 AM,41.0,37.4,87,30.07,10.0,South,12.7,-,N/A,,Overcast,170,2013-01-27 19:23:00
11:28 AM,41.0,37.4,87,30.06,10.0,South,10.4,-,N/A,,Overcast,170,2013-01-27 19:28:00
11:48 AM,41.0,39.2,93,30.06,10.0,South,12.7,-,N/A,,Overcast,170,2013-01-27 19:48:00
11:58 AM,40.5,37.9,91,30.08,10.0,South,12.7,-,0.01,,Overcast,170,2013-01-27 19:58:00
12:05 PM,41.0,37.4,87,30.05,10.0,South,10.4,-,N/A,,Overcast,170,2013-01-27 20:05:00
12:48 PM,41.0,39.2,93,30.03,10.0,South,10.4,-,N/A,,Overcast,170,2013-01-27 20:48:00
12:53 PM,41.0,39.2,93,30.03,10.0,South,12.7,-,N/A,,Overcast,170,2013-01-27 20:53:00
12:58 PM,40.3,38.7,94,30.05,10.0,South,10.4,-,0.02,,Overcast,170,2013-01-27 20:58:00
1:21 PM,41.0,39.2,93,30.02,10.0,South,12.7,-,N/A,,Overcast,170,2013-01-27 21:21:00
1:37 PM,39.2,39.2,100,30.02,10.0,South,10.4,-,N/A,,Light Drizzle,170,2013-01-27 21:37:00
1:38 PM,39.2,39.2,100,30.02,10.0,South,9.2,-,N/A,,Overcast,170,2013-01-27 21:38:00
1:43 PM,39.2,39.2,100,30.02,10.0,South,11.5,-,N/A,,Overcast,170,2013-01-27 21:43:00
1:44 PM,39.2,39.2,100,30.01,10.0,South,10.4,-,N/A,Rain,Light Rain,170,2013-01-27 21:44:00
1:54 PM,39.2,39.2,100,30.01,10.0,South,11.5,-,N/A,,Overcast,170,2013-01-27 21:54:00
1:58 PM,39.9,38.3,94,30.03,10.0,South,11.5,-,0.03,,Overcast,170,2013-01-27 21:58:00
2:58 PM,39.9,38.1,93,30.03,10.0,South,11.5,-,N/A,,Mostly Cloudy,170,2013-01-27 22:58:00
3:08 PM,39.2,37.4,93,30.01,10.0,South,13.8,19.6,N/A,,Scattered Clouds,170,2013-01-27 23:08:00
3:58 PM,39.6,36.9,90,30.03,10.0,South,12.7,-,0.01,,Mostly Cloudy,170,2013-01-27 23:58:00
4:58 PM,38.7,36.9,93,30.02,10.0,South,12.7,-,N/A,,Overcast,170,2013-01-28 00:58:00
5:28 PM,39.2,37.4,93,30.00,10.0,South,10.4,-,N/A,,Mostly Cloudy,170,2013-01-28 01:28:00
5:33 PM,39.2,37.4,93,30.00,10.0,South,9.2,-,N/A,,Mostly Cloudy,170,2013-01-28 01:33:00
5:38 PM,39.2,37.4,93,30.00,10.0,South,9.2,-,N/A,,Mostly Cloudy,170,2013-01-28 01:38:00
5:53 PM,39.2,37.4,93,30.00,10.0,South,11.5,-,N/A,,Overcast,170,2013-01-28 01:53:00
5:58 PM,38.3,36.7,94,30.02,10.0,South,11.5,-,N/A,,Overcast,170,2013-01-28 01:58:00
6:58 PM,38.3,36.1,92,30.02,10.0,South,11.5,-,N/A,,Scattered Clouds,170,2013-01-28 02:58:00
7:13 PM,37.4,35.6,93,30.00,10.0,South,9.2,-,N/A,,Mostly Cloudy,170,2013-01-28 03:13:00
7:58 PM,38.3,36.1,92,30.03,10.0,South,9.2,-,N/A,,Overcast,170,2013-01-28 03:58:00
8:33 PM,39.2,37.4,93,30.00,10.0,South,8.1,-,N/A,,Scattered Clouds,170,2013-01-28 04:33:00
8:58 PM,38.5,36.7,93,30.02,10.0,South,8.1,-,N/A,,Mostly Cloudy,170,2013-01-28 04:58:00
9:58 PM,38.3,36.5,93,30.02,10.0,South,10.4,-,N/A,,Mostly Cloudy,170,2013-01-28 05:58:00
10:03 PM,39.2,35.6,87,30.00,10.0,South,11.5,-,N/A,,Mostly Cloudy,170,2013-01-28 06:03:00
10:08 PM,39.2,35.6,87,30.00,10.0,South,10.4,-,N/A,,Mostly Cloudy,170,2013-01-28 06:08:00
10:58 PM,38.1,36.3,93,30.02,10.0,South,9.2,-,N/A,,Mostly Cloudy,170,2013-01-28 06:58:00
11:13 PM,39.2,37.4,93,30.00,10.0,South,8.1,-,N/A,,Overcast,170,2013-01-28 07:13:00
11:18 PM,39.2,37.4,93,30.00,10.0,South,8.1,-,N/A,,Overcast,170,2013-01-28 07:18:00
11:58 PM,38.7,37.4,95,30.03,10.0,South,6.9,-,N/A,,Overcast,170,2013-01-28 07:58:00